Wetbulb
59.04 54.23 52.94 50.47 44.12 40.30 37.31 42.43 46.48 45.63 46.99 49.29 51.36 53.51 52.94 53.56 53.02 47.02 62.86 67.00 67.91 67.61 69.24 70.37 71.72 72.37 71.57 71.63 71.30 70.72 70.21 69.99 68.74 68.80 69.39 68.78 68.40 68.48 68.45 68.45 68.20 69.50 69.15 68.88 69.52 69.24 68.72 68.15 68.36
56.93 55.24 50.92 45.57 39.61 35.23 36.05 41.90 44.51 47.11 49.98 53.38 53.65 52.90 53.17 52.36 58.35 60.55 61.66 67.37 67.52 67.99 68.89 69.09 70.39 71.70 71.29 71.25 71.07 70.40 70.09 69.69 68.90 69.03 69.66 69.08 68.28 68.02 68.92 68.96 69.89 69.32 68.65 68.66 68.66 68.26 67.82 67.61 67.24
53.88 54.18 46.97 42.93 37.88 34.80 37.92 42.74 46.41 48.48 50.50 48.80 49.36 53.46 54.54 54.80 59.47 60.93 64.30 67.02 67.59 67.30 68.20 69.00 70.42 71.60 71.14 71.03 71.05 70.33 69.82 69.54 69.06 69.32 70.11 69.66 68.56 67.65 68.11 68.40 69.45 68.88 68.44 68.02 67.71 67.47 66.96 66.54 66.15
51.50 49.61 46.09 40.20 37.12 39.55 43.01 45.69 46.34 46.59 46.91 51.21 52.11 51.22 56.35 59.78 61.51 63.35 66.31 66.93 66.26 66.71 67.54 69.06 70.50 71.16 71.08 70.75 70.98 70.30 69.13 69.24 69.16 68.76 68.71 69.55 68.88 67.59 67.96 68.40 68.48 67.84 67.44 67.59 67.18 66.83 66.20 65.84 65.53
48.75 45.96 40.35 37.89 38.63 40.28 43.44 46.53 45.98 44.31 45.11 47.37 51.49 50.95 53.68 60.19 63.97 64.74 64.36 65.67 65.44 66.05 66.80 68.25 69.91 70.67 70.98 70.90 70.66 70.05 69.31 68.93 68.66 68.30 67.76 67.89 68.52 68.23 67.82 68.77 68.11 67.46 66.85 66.59 66.64 66.06 65.41 64.65 64.46
44.73 44.82 37.67 35.90 36.77 41.27 44.40 46.42 46.14 43.89 46.11 51.28 53.13 52.71 53.30 60.46 62.76 63.46 64.68 64.51 66.10 65.99 66.37 66.73 66.19 68.23 69.70 70.20 69.92 69.55 69.19 68.96 68.87 67.84 67.07 66.87 67.74 68.10 68.11 68.69 67.72 67.17 66.61 66.08 65.77 65.38 64.62 64.10 63.77
43.85 40.75 37.23 36.56 37.61 39.26 44.82 46.70 45.02 44.84 45.04 47.03 54.32 50.52 56.96 59.33 63.01 64.45 64.31 65.11 65.80 65.64 65.07 64.80 65.41 65.84 66.46 67.49 67.75 68.25 68.38 68.38 68.65 68.45 67.42 66.87 67.10 67.62 68.17 68.06 67.50 66.71 66.44 66.04 65.45 64.87 64.24 63.52 63.09
46.76 43.56 37.77 37.75 38.04 39.73 44.31 45.78 44.76 45.46 45.18 52.19 56.33 51.76 54.48 58.95 62.23 64.46 64.53 63.99 63.26 63.52 63.56 63.33 63.94 64.55 65.06 65.37 64.39 65.28 66.41 66.66 66.72 66.05 64.55 63.39 63.82 64.08 64.58 64.55 66.69 66.53 66.16 65.83 65.48 64.62 63.69 62.83 62.11
48.00 40.18 38.67 40.13 39.80 42.06 43.98 43.58 44.29 46.72 48.47 51.09 54.07 55.35 58.44 60.67 62.55 63.15 62.97 61.78 61.84 62.36 62.10 62.52 62.61 63.29 64.01 64.24 62.17 63.09 63.86 63.95 63.58 62.78 61.50 60.29 59.40 60.01 61.09 62.67 65.41 65.69 65.11 64.29 63.62 63.79 62.65 61.37 60.41
44.12 39.30 41.27 44.53 42.56 43.80 44.46 44.63 44.99 46.26 46.13 51.22 53.78 57.30 60.76 59.70 61.92 60.73 60.79 60.07 60.29 60.26 60.81 61.61 61.79 62.30 63.07 64.92 62.96 62.49 62.24 61.41 60.98 60.45 59.74 59.79 59.60 59.46 59.98 59.67 62.08 63.61 63.74 64.00 63.17 62.39 61.92 60.31 57.70
44.13 41.28 44.09 44.33 44.15 45.65 44.99 43.69 43.58 45.43 42.04 52.21 53.90 57.03 58.98 58.56 59.81 60.41 60.22 60.63 60.77 61.31 61.78 61.85 61.92 62.38 62.50 62.58 62.05 61.55 60.86 60.47 59.95 59.46 59.65 58.88 58.89 58.41 57.75 57.34 57.29 57.45 57.60 57.54 58.33 57.66 57.12 57.19 57.44
41.00 44.79 44.42 46.38 45.77 45.92 44.55 45.31 42.94 42.96 43.51 52.62 57.76 58.78 58.66 57.86 57.79 60.13 60.27 60.46 61.13 61.42 61.82 61.88 62.28 62.35 61.82 62.24 61.78 61.38 61.08 60.77 59.73 58.54 59.33 57.74 57.30 57.04 57.14 57.05 56.94 56.62 56.78 56.16 56.21 56.31 56.86 56.61 57.37
42.29 42.06 44.37 44.52 46.11 45.39 45.76 43.36 43.27 42.42 42.49 56.86 58.05 58.31 57.67 58.17 57.35 59.10 61.20 61.42 61.96 61.44 62.14 62.86 63.84 63.22 62.07 61.85 62.11 61.77 61.35 61.34 60.92 59.86 59.21 58.50 56.77 56.26 57.52 57.30 57.08 57.12 56.35 56.61 56.03 56.15 56.26 56.12 56.67
44.01 43.36 42.64 43.47 43.41 43.93 43.55 42.24 43.11 42.68 47.43 55.35 57.28 57.01 57.04 56.89 56.59 57.04 58.84 60.47 61.55 62.14 62.12 63.07 62.96 63.85 63.79 63.25 62.88 62.91 63.44 63.08 62.47 60.91 59.84 58.72 58.20 57.25 57.26 57.20 57.58 57.24 57.10 56.96 56.50 55.79 55.37 55.49 55.39
42.59 39.15 39.55 40.60 42.31 41.70 43.41 40.48 40.08 42.47 50.24 54.15 54.91 55.46 56.44 57.05 57.27 57.68 58.55 60.28 61.53 62.49 62.89 63.12 63.15 63.10 63.06 62.06 63.60 63.51 63.22 63.53 63.19 62.84 61.99 59.86 59.11 57.82 57.75 57.14 56.92 57.32 57.26 56.32 55.67 55.17 54.72 54.24 54.60
40.39 37.54 34.26 38.93 41.51 40.69 40.46 37.19 40.79 42.14 45.99 49.43 51.48 51.93 54.95 56.37 57.71 58.24 58.72 59.00 61.44 62.09 62.71 63.58 64.14 63.05 62.61 62.32 62.23 63.49 63.59 63.75 63.34 63.28 62.86 62.22 61.34 59.31 57.41 56.88 56.88 57.02 56.34 56.03 55.03 54.36 54.04 54.43 54.80
34.70 31.33 32.48 36.00 41.24 39.26 38.86 36.53 40.53 40.87 42.24 42.25 43.45 46.10 49.97 53.47 54.04 56.24 57.28 57.79 59.94 61.39 63.04 63.30 63.22 62.48 62.26 61.90 62.53 63.90 64.03 63.62 63.69 63.74 63.60 63.06 62.34 61.61 59.99 58.07 56.85 56.75 56.13 55.53 55.57 55.43 55.43 54.76 54.50
30.86 31.57 32.98 32.99 38.49 37.91 36.41 36.54 38.47 40.72 40.01 39.95 40.07 40.21 43.60 48.29 51.04 53.81 55.73 56.56 58.89 60.41 62.68 63.23 63.21 62.82 61.47 61.57 61.95 64.28 64.26 64.07 64.17 63.84 63.67 63.50 63.12 62.16 61.50 60.97 60.14 59.10 57.52 56.52 56.74 56.03 54.00 54.82 52.96
37.27 35.71 34.76 34.25 37.95 37.31 36.82 36.95 38.78 40.06 38.82 37.76 38.05 38.45 41.78 45.90 42.57 43.33 45.81 50.36 56.43 57.57 58.80 61.55 61.86 61.94 61.70 61.02 60.59 62.18 62.62 63.33 63.52 63.96 63.87 63.62 63.23 62.65 61.93 61.37 61.09 60.72 58.57 57.85 57.25 56.34 55.43 54.63 54.61
36.86 35.70 33.64 34.88 37.19 36.41 35.38 36.90 37.37 38.83 39.30 39.32 38.87 38.09 41.37 40.04 41.09 42.87 43.12 42.63 46.07 48.64 55.82 59.71 61.71 61.49 61.74 62.05 60.80 61.13 62.86 63.11 63.47 63.47 63.61 63.77 63.32 62.65 61.82 61.21 60.59 60.13 59.34 59.03 58.25 56.77 54.88 54.54 54.43
34.26 33.66 32.43 34.65 34.30 33.93 32.88 33.47 35.76 38.56 38.68 39.41 40.09 39.66 39.87 40.28 41.59 42.70 44.71 43.96 43.79 43.52 44.64 53.29 60.06 61.28 61.97 61.90 62.01 61.96 61.90 61.99 62.17 62.34 62.68 63.26 63.49 62.92 61.62 61.17 60.41 59.85 59.11 58.19 57.81 57.35 55.68 54.62 54.42
31.99 37.02 36.46 34.85 32.15 28.77 32.69 27.27 30.38 35.15 37.44 38.70 39.44 38.82 39.92 40.47 42.20 43.12 43.83 42.81 45.10 46.29 44.56 45.55 54.77 60.66 61.04 62.66 62.23 61.48 60.39 59.60 60.59 61.24 61.23 59.67 59.42 59.09 59.84 60.12 59.72 59.24 58.86 58.23 57.69 57.27 56.61 55.36 53.37
35.50 38.59 36.62 34.21 31.55 30.45 28.36 27.24 29.82 31.66 32.80 37.05 38.10 38.54 40.45 40.96 42.58 43.29 44.24 45.81 44.90 46.67 42.37 45.54 52.08 59.90 61.04 62.12 62.46 61.15 59.94 59.43 58.46 57.49 56.94 54.35 50.82 50.76 51.50 52.56 53.29 54.56 55.61 55.71 54.37 53.50 51.96 53.79 54.27
39.34 37.57 35.19 33.50 31.19 24.99 29.08 28.80 28.00 29.97 35.07 38.68 36.63 38.91 39.34 40.77 41.44 43.03 44.13 45.07 44.56 45.10 46.02 47.62 50.56 52.44 57.93 59.84 61.18 59.86 57.79 56.24 54.39 51.72 49.40 48.11 47.60 46.63 46.30 45.95 46.57 46.69 46.78 46.73 47.02 47.30 47.41 47.61 47.88
37.90 34.64 25.91 24.87 24.80 23.66 26.44 25.26 31.49 32.87 35.83 37.15 39.60 37.99 38.71 40.37 40.78 41.70 41.84 41.87 42.27 42.89 43.53 45.44 47.78 46.15 50.04 51.97 52.95 52.04 50.02 47.56 47.13 44.83 43.38 41.86 41.24 40.91 41.13 41.88 42.05 42.40 42.63 43.07 43.21 43.19 43.33 43.35 42.79
33.65 35.00 25.05 19.90 19.21 22.00 26.01 25.00 31.48 34.80 37.04 38.01 39.23 39.59 39.25 39.30 40.80 40.89 40.97 40.95 41.40 41.79 41.75 41.97 42.74 42.37 44.30 45.53 46.04 45.96 44.50 43.53 42.36 41.46 40.74 39.93 39.47 38.87 39.04 39.08 39.38 39.58 39.93 39.93 39.93 39.69 39.87 39.97 39.69
34.43 31.06 33.49 25.95 16.96 22.43 23.92 27.06 34.19 35.66 35.52 36.75 37.44 38.79 38.55 38.88 40.20 40.26 40.31 40.12 39.91 39.93 40.20 40.63 40.74 40.48 41.51 41.98 42.22 41.25 41.14 40.59 39.58 38.85 38.10 37.35 37.66 38.32 37.08 37.19 36.95 37.39 37.66 38.08 37.80 37.41 37.53 37.67 37.34
35.70 36.83 29.75 26.62 19.14 16.59 21.98 23.01 27.75 31.58 35.87 36.06 36.72 38.04 38.35 39.31 39.55 39.53 39.46 39.31 39.35 39.46 39.31 39.39 39.78 39.49 39.50 40.16 40.08 39.08 38.05 37.65 36.68 36.26 35.39 35.48 35.68 35.77 35.43 35.08 34.97 35.14 35.41 35.82 35.52 35.09 36.45 36.24 35.64
32.86 31.23 30.41 30.60 27.27 22.14 17.62 24.02 31.08 35.07 38.09 36.75 37.84 38.90 39.10 39.39 39.68 39.22 38.66 38.84 38.54 38.13 38.23 37.90 38.31 38.21 37.94 37.91 37.33 36.53 35.75 35.62 35.50 34.75 33.78 33.79 34.15 34.18 34.01 33.73 33.47 33.39 33.49 33.87 33.53 33.65 34.65 34.04 33.10
33.50 33.56 33.38 28.48 24.74 23.98 24.04 25.75 33.94 33.89 36.00 38.50 37.88 39.14 39.36 40.07 39.44 38.89 38.65 37.70 37.09 36.87 36.85 36.63 36.54 36.93 36.58 36.56 35.98 35.43 35.03 34.08 33.29 32.67 32.53 32.74 32.43 32.91 32.62 32.51 32.07 32.23 32.37 32.41 32.13 32.24 33.27 32.27 31.85
MSLP
1015.01 1014.95 1015.17 1015.53 1017.23 1018.21 1017.99 1017.45 1016.85 1016.67 1016.72 1016.67 1016.71 1017.26 1018.77 1019.37 1019.88 1020.87 1020.10 1020.40 1020.57 1021.00 1021.21 1021.25 1021.35 1021.42 1021.68 1021.87 1021.86 1022.16 1022.31 1022.13 1022.34 1022.48 1022.46 1022.64 1022.71 1022.69 1022.60 1022.57 1022.56 1022.68 1022.70 1022.65 1022.86 1022.87 1022.94 1023.07 1023.12
1015.11 1014.79 1015.23 1016.37 1017.75 1018.42 1018.33 1017.51 1017.08 1016.58 1016.78 1017.07 1017.26 1018.14 1018.88 1019.84 1019.79 1020.50 1020.71 1020.80 1020.67 1021.16 1021.37 1021.52 1021.62 1021.72 1022.00 1022.03 1022.18 1022.38 1022.54 1022.51 1022.69 1022.71 1022.76 1022.93 1023.03 1023.05 1023.02 1022.95 1022.94 1023.02 1023.13 1023.13 1023.32 1023.40 1023.45 1023.45 1023.53
1014.93 1015.28 1016.15 1017.05 1018.05 1018.26 1017.89 1017.55 1017.05 1016.81 1016.71 1016.88 1017.87 1018.56 1019.21 1019.81 1019.86 1020.24 1020.34 1020.63 1020.98 1021.51 1021.66 1021.71 1021.72 1021.85 1022.15 1022.31 1022.56 1022.72 1022.91 1022.94 1023.00 1022.93 1023.07 1023.11 1023.21 1023.33 1023.37 1023.44 1023.43 1023.50 1023.52 1023.55 1023.74 1023.86 1023.91 1023.98 1024.09
1015.30 1015.84 1016.77 1017.33 1017.71 1017.34 1017.32 1017.31 1016.93 1016.78 1016.83 1016.99 1018.02 1019.19 1019.41 1019.40 1019.31 1019.86 1020.30 1020.63 1021.05 1021.68 1022.01 1021.98 1021.94 1021.98 1022.21 1022.60 1022.81 1023.01 1023.10 1023.17 1023.26 1023.23 1023.45 1023.48 1023.54 1023.63 1023.77 1023.81 1023.89 1023.99 1024.08 1024.22 1024.27 1024.35 1024.43 1024.51 1024.60
1015.83 1016.52 1017.40 1017.67 1017.39 1016.89 1016.88 1016.80 1016.79 1016.87 1017.16 1017.77 1018.11 1019.54 1019.85 1019.76 1019.35 1020.15 1020.71 1021.02 1021.34 1021.92 1022.24 1022.27 1022.29 1022.20 1022.50 1022.84 1023.09 1023.24 1023.35 1023.49 1023.58 1023.61 1023.91 1024.02 1024.06 1024.07 1024.17 1024.17 1024.27 1024.40 1024.51 1024.61 1024.71 1024.80 1024.86 1024.86 1024.92
1016.57 1016.86 1017.85 1017.84 1017.32 1016.82 1016.68 1016.63 1016.72 1016.97 1017.48 1018.19 1018.83 1019.63 1020.31 1020.26 1019.99 1020.82 1021.06 1021.32 1021.30 1021.97 1022.45 1022.58 1022.73 1022.67 1022.83 1023.08 1023.35 1023.56 1023.59 1023.75 1023.83 1023.96 1024.22 1024.36 1024.41 1024.37 1024.38 1024.46 1024.59 1024.76 1024.90 1025.00 1025.10 1025.20 1025.20 1025.17 1025.29
1016.53 1017.23 1017.83 1017.69 1017.27 1017.06 1016.46 1016.31 1016.56 1017.00 1017.54 1018.08 1018.42 1020.03 1020.49 1020.72 1020.40 1020.76 1021.33 1021.66 1021.67 1022.03 1022.50 1022.91 1023.05 1023.13 1023.21 1023.47 1023.61 1023.70 1023.79 1023.98 1024.12 1024.32 1024.49 1024.61 1024.60 1024.55 1024.62 1024.70 1024.73 1024.91 1025.09 1025.28 1025.46 1025.50 1025.49 1025.48 1025.60
1016.28 1016.82 1017.58 1017.29 1017.09 1016.74 1016.23 1016.29 1016.47 1016.63 1017.61 1017.75 1018.06 1019.70 1020.42 1020.49 1020.57 1020.81 1021.56 1022.26 1022.50 1022.54 1022.70 1022.90 1023.11 1023.39 1023.51 1023.71 1023.91 1024.00 1024.16 1024.34 1024.63 1024.84 1024.91 1025.06 1025.10 1025.15 1025.18 1025.15 1025.15 1025.32 1025.46 1025.57 1025.68 1025.78 1025.80 1025.73 1025.77
1016.12 1016.66 1017.10 1016.88 1016.84 1016.35 1016.08 1016.22 1016.55 1016.73 1017.34 1017.94 1018.24 1018.65 1018.92 1020.04 1020.63 1021.19 1021.78 1022.59 1022.87 1023.25 1023.16 1023.19 1023.45 1023.52 1023.76 1024.04 1024.22 1024.30 1024.60 1024.90 1025.11 1025.20 1025.27 1025.41 1025.55 1025.57 1025.53 1025.47 1025.48 1025.60 1025.74 1025.84 1025.95 1026.08 1026.07 1026.02 1025.93
1016.19 1016.56 1016.35 1015.86 1015.72 1015.78 1016.00 1016.05 1016.53 1017.04 1017.77 1018.34 1018.41 1018.56 1019.08 1020.06 1020.56 1021.11 1021.52 1022.14 1022.51 1023.19 1023.53 1023.30 1023.51 1023.84 1023.94 1024.14 1024.54 1024.78 1025.02 1025.20 1025.28 1025.38 1025.56 1025.64 1025.72 1025.79 1025.85 1025.87 1025.87 1025.95 1026.04 1026.13 1026.23 1026.32 1026.36 1026.35 1026.33
1016.18 1016.04 1015.83 1015.40 1015.25 1015.60 1015.79 1016.28 1016.51 1017.03 1017.96 1017.98 1018.30 1018.94 1019.57 1020.32 1020.82 1021.21 1021.65 1021.74 1021.59 1022.45 1023.20 1023.36 1023.51 1023.81 1024.05 1024.36 1024.73 1024.98 1025.19 1025.31 1025.43 1025.55 1025.70 1025.86 1025.97 1026.11 1026.23 1026.29 1026.34 1026.36 1026.38 1026.45 1026.42 1026.47 1026.50 1026.47 1026.45
1016.38 1015.65 1015.34 1015.16 1014.95 1015.57 1015.66 1016.09 1016.70 1016.91 1017.02 1017.01 1017.81 1018.43 1019.48 1020.23 1020.78 1021.04 1021.55 1021.85 1021.94 1022.17 1022.73 1023.08 1023.37 1023.78 1024.10 1024.44 1024.67 1024.84 1025.16 1025.34 1025.54 1025.60 1025.67 1025.94 1026.19 1026.33 1026.43 1026.52 1026.55 1026.64 1026.72 1026.78 1026.81 1026.86 1026.78 1026.63 1026.40
1016.37 1015.93 1015.52 1015.20 1015.07 1015.45 1015.60 1016.13 1016.68 1017.08 1017.24 1017.48 1018.39 1019.04 1019.65 1020.16 1020.71 1021.03 1021.17 1021.68 1021.94 1022.04 1022.25 1022.59 1022.86 1023.39 1023.99 1024.25 1024.56 1024.81 1024.95 1025.08 1025.23 1025.49 1025.63 1025.85 1026.10 1026.33 1026.35 1026.47 1026.54 1026.56 1026.59 1026.64 1026.73 1026.73 1026.71 1026.68 1026.58
1016.19 1016.08 1015.90 1015.59 1015.56 1015.70 1015.80 1016.41 1016.57 1017.42 1017.79 1018.08 1018.72 1019.28 1019.51 1020.04 1020.33 1020.95 1021.29 1021.56 1021.84 1021.78 1022.07 1022.21 1022.42 1022.75 1023.26 1023.70 1024.13 1024.41 1024.60 1024.76 1025.06 1025.30 1025.44 1025.69 1025.93 1026.15 1026.28 1026.34 1026.37 1026.44 1026.50 1026.50 1026.57 1026.68 1026.73 1026.71 1026.64
1016.57 1016.55 1016.32 1016.13 1015.99 1015.86 1015.99 1016.91 1016.99 1017.42 1018.12 1018.54 1019.11 1019.39 1019.68 1019.83 1020.01 1020.21 1020.59 1021.13 1021.16 1021.28 1021.71 1022.03 1022.25 1022.59 1022.92 1023.37 1023.37 1023.81 1023.95 1024.35 1024.62 1024.85 1025.17 1025.39 1025.62 1025.85 1025.99 1026.15 1026.31 1026.31 1026.33 1026.41 1026.49 1026.47 1026.51 1026.58 1026.52
1017.16 1017.08 1017.07 1016.53 1016.43 1016.17 1016.18 1016.95 1017.27 1017.72 1018.27 1019.00 1019.37 1019.62 1019.76 1019.87 1019.55 1019.82 1019.96 1020.38 1020.84 1021.12 1021.43 1021.81 1022.02 1022.47 1022.73 1023.02 1023.11 1023.33 1023.67 1024.09 1024.42 1024.60 1024.91 1025.19 1025.34 1025.59 1025.90 1026.12 1026.19 1026.19 1026.34 1026.43 1026.54 1026.59 1026.65 1026.53 1026.47
1017.33 1017.30 1017.41 1016.92 1016.70 1016.50 1016.67 1017.12 1017.23 1017.79 1018.45 1019.19 1019.50 1019.63 1019.76 1019.87 1019.61 1019.48 1019.44 1019.76 1020.09 1020.60 1021.11 1021.55 1021.89 1022.36 1022.53 1022.74 1022.90 1023.33 1023.71 1024.02 1024.27 1024.52 1024.81 1024.89 1025.09 1025.28 1025.58 1025.92 1026.04 1026.01 1026.12 1026.15 1026.27 1026.36 1026.43 1026.39 1026.35
1016.80 1017.33 1017.35 1017.21 1017.07 1017.10 1017.13 1017.06 1017.31 1017.77 1018.39 1018.90 1019.34 1019.53 1019.82 1019.69 1019.47 1019.16 1019.17 1019.30 1019.57 1020.09 1020.60 1021.13 1021.56 1022.03 1022.40 1022.73 1023.05 1023.31 1023.75 1024.06 1024.24 1024.45 1024.64 1024.81 1024.92 1025.05 1025.22 1025.44 1025.59 1025.82 1026.02 1026.21 1026.30 1026.46 1026.41 1026.39 1026.34
1016.23 1016.93 1017.35 1017.19 1017.07 1017.37 1017.34 1017.22 1017.32 1017.66 1018.30 1018.80 1019.26 1019.58 1019.66 1019.63 1019.59 1019.43 1019.23 1019.21 1019.60 1020.02 1020.62 1020.95 1021.29 1021.76 1022.36 1022.89 1023.28 1023.49 1023.67 1023.99 1024.16 1024.38 1024.46 1024.64 1024.88 1025.03 1025.15 1025.27 1025.46 1025.64 1025.88 1025.92 1025.94 1026.12 1026.34 1026.24 1026.07
1016.29 1016.68 1017.51 1017.65 1017.53 1017.66 1017.81 1017.52 1017.63 1017.72 1017.91 1018.11 1018.58 1019.23 1019.36 1019.77 1019.98 1019.71 1019.81 1019.67 1019.64 1019.83 1020.40 1020.87 1020.96 1021.43 1021.93 1022.45 1022.79 1023.10 1023.37 1023.73 1023.85 1024.04 1024.35 1024.47 1024.54 1024.72 1024.98 1025.14 1025.18 1025.30 1025.57 1025.67 1025.81 1026.05 1026.14 1026.12 1026.04
1016.34 1016.55 1017.35 1017.53 1018.07 1018.09 1018.26 1018.31 1017.90 1017.53 1017.73 1018.03 1018.23 1018.72 1019.27 1019.64 1020.11 1020.25 1020.16 1020.26 1020.25 1020.47 1020.77 1020.70 1020.80 1021.04 1021.45 1021.94 1022.51 1022.96 1023.43 1023.83 1024.10 1024.17 1024.23 1024.32 1024.38 1024.55 1024.71 1024.92 1025.09 1025.16 1025.34 1025.54 1025.75 1025.73 1025.95 1025.98 1025.73
1016.19 1016.33 1016.95 1017.91 1018.49 1018.70 1018.55 1018.78 1018.06 1017.72 1017.71 1018.25 1018.54 1018.82 1019.26 1019.74 1020.27 1020.64 1020.78 1020.72 1020.45 1020.76 1020.96 1020.90 1020.77 1020.89 1021.14 1021.40 1022.11 1022.48 1023.12 1023.54 1023.79 1024.07 1024.31 1024.85 1024.91 1025.11 1025.14 1025.03 1025.11 1025.18 1025.30 1025.49 1025.74 1025.66 1025.78 1025.99 1026.09
1015.79 1016.32 1017.19 1018.03 1018.75 1018.87 1019.39 1019.54 1017.86 1018.00 1018.15 1018.35 1018.52 1019.10 1019.31 1020.03 1020.28 1020.76 1020.96 1020.91 1020.76 1020.87 1021.14 1021.02 1020.94 1020.94 1021.11 1021.49 1021.70 1022.30 1022.96 1023.46 1023.89 1024.50 1024.92 1025.46 1025.76 1025.89 1025.86 1025.88 1025.78 1025.69 1025.65 1025.84 1025.87 1026.14 1026.13 1026.20 1026.35
1015.73 1016.68 1018.01 1018.58 1019.46 1019.86 1019.07 1019.35 1017.92 1017.86 1017.03 1017.06 1018.31 1019.05 1019.40 1020.50 1020.89 1021.07 1021.10 1021.16 1021.20 1021.08 1021.25 1021.34 1021.23 1021.26 1021.24 1021.60 1021.71 1022.33 1022.98 1023.86 1024.50 1024.98 1025.45 1026.13 1026.43 1026.48 1026.55 1026.56 1026.65 1026.85 1026.75 1026.69 1026.66 1026.65 1026.63 1026.81 1026.84
1015.42 1016.60 1018.62 1019.74 1020.20 1019.63 1019.43 1019.45 1017.24 1016.46 1016.25 1016.38 1017.11 1018.41 1019.27 1020.55 1021.29 1021.43 1021.32 1021.47 1021.70 1021.55 1021.64 1021.80 1021.44 1021.69 1021.59 1021.83 1022.07 1022.77 1023.35 1024.34 1025.25 1025.76 1026.12 1026.72 1027.02 1027.51 1027.52 1027.46 1027.32 1027.27 1027.25 1027.18 1027.23 1027.21 1027.18 1027.29 1027.28
1015.24 1015.43 1016.97 1018.25 1019.98 1020.30 1020.04 1018.58 1016.39 1015.88 1015.87 1016.16 1016.96 1018.23 1019.45 1020.24 1021.32 1021.60 1021.51 1021.71 1021.84 1021.91 1022.10 1022.14 1022.05 1022.42 1022.51 1022.54 1022.97 1023.57 1024.28 1024.90 1025.66 1025.99 1026.70 1027.24 1027.51 1027.98 1027.95 1027.94 1027.78 1027.75 1027.76 1027.75 1027.65 1027.74 1027.70 1027.64 1027.63
1015.06 1015.15 1015.98 1018.17 1020.62 1020.30 1019.15 1017.95 1016.34 1015.94 1016.26 1016.69 1017.41 1018.62 1019.51 1020.02 1021.03 1021.65 1021.67 1022.30 1022.36 1022.31 1022.31 1022.34 1022.62 1022.91 1022.96 1023.02 1023.65 1024.57 1025.14 1025.42 1026.16 1026.73 1027.16 1027.47 1027.79 1027.96 1028.11 1028.21 1028.28 1028.33 1028.17 1028.09 1028.04 1028.09 1027.97 1027.95 1027.97
1014.02 1014.56 1016.16 1017.64 1019.51 1020.05 1019.10 1017.95 1016.30 1016.16 1016.16 1016.75 1017.64 1018.26 1019.24 1019.94 1021.10 1021.68 1021.91 1022.48 1022.55 1022.64 1022.80 1023.07 1023.03 1023.42 1023.62 1023.64 1024.13 1025.00 1025.66 1026.16 1026.62 1027.15 1027.75 1027.87 1027.99 1028.04 1028.27 1028.42 1028.41 1028.54 1028.72 1028.54 1028.29 1028.24 1028.04 1028.23 1028.24
1014.61 1014.57 1015.39 1016.43 1017.66 1018.08 1018.35 1016.57 1014.59 1014.23 1014.41 1015.46 1016.67 1017.64 1018.71 1020.00 1020.92 1021.44 1021.98 1022.61 1022.95 1023.00 1023.24 1023.41 1023.63 1023.94 1024.34 1024.46 1024.89 1025.44 1026.25 1026.90 1027.13 1027.52 1028.03 1028.23 1028.31 1028.41 1028.50 1028.66 1028.66 1028.56 1028.78 1028.76 1028.65 1028.53 1028.28 1028.16 1028.12
1014.48 1014.20 1014.58 1015.72 1017.05 1017.59 1017.13 1015.01 1013.65 1013.78 1014.38 1015.40 1016.68 1017.61 1018.61 1019.58 1020.61 1021.45 1021.96 1022.43 1022.99 1023.25 1023.64 1023.93 1024.03 1024.38 1024.68 1025.19 1025.74 1026.14 1026.52 1027.26 1027.59 1027.78 1028.24 1028.40 1028.60 1028.66 1028.83 1028.94 1029.01 1028.92 1028.89 1028.78 1028.67 1028.48 1028.45 1028.29 1028.14
Wind_Speed
7 7 2 4 6 6 3 1 3 3 4 4 3 11 8 4 4 2 2 10 12 7 6 8 11 12 13 13 15 14 12 15 16 14 16 18 16 16 18 17 17 17 17 18 18 18 19 19 19
4 3 5 3 5 2 4 3 4 4 7 10 9 5 7 3 3 7 5 10 12 9 6 6 11 12 12 12 14 14 12 14 14 13 13 17 16 15 15 15 14 16 16 17 17 18 18 19 19
5 1 4 5 4 3 5 3 5 2 6 3 6 6 5 4 6 5 10 13 11 8 6 8 11 12 12 14 14 14 12 12 13 13 16 14 17 15 15 15 16 17 16 16 16 16 16 16 17
3 5 5 5 3 3 7 7 5 6 3 8 6 7 3 3 6 8 14 13 12 8 6 8 11 12 14 14 14 14 13 13 12 12 14 15 17 16 14 14 16 16 15 15 15 14 13 13 15
4 3 4 3 3 1 2 5 5 4 4 4 2 3 2 4 14 16 12 10 12 8 6 6 10 11 15 15 14 13 13 12 11 14 12 12 14 14 11 12 16 16 14 13 13 12 12 12 14
3 4 4 2 2 2 3 5 6 4 3 4 7 6 1 4 16 10 11 9 11 10 6 6 8 10 12 13 14 13 13 12 13 13 12 11 11 8 11 14 16 14 13 13 12 11 10 11 13
5 5 4 4 3 1 6 7 8 7 6 3 10 6 3 5 12 13 9 8 9 10 9 6 6 8 11 11 11 11 12 11 11 12 12 11 10 12 10 12 14 13 13 12 11 10 9 9 11
3 5 5 4 4 5 3 5 5 7 3 5 9 8 8 10 12 13 12 7 5 5 6 7 7 5 6 6 9 10 11 11 10 9 9 8 9 10 8 7 11 13 12 11 10 8 7 7 7
3 4 3 5 7 6 2 5 1 2 7 3 2 7 10 11 12 13 14 7 6 4 4 6 5 6 6 5 5 8 9 8 7 6 7 6 4 5 6 7 11 11 10 9 7 6 5 5 6
3 4 8 5 5 7 5 6 8 5 2 4 5 6 18 14 15 15 15 13 10 8 5 5 7 6 6 5 5 5 5 4 4 5 5 3 4 3 4 6 9 9 8 7 6 3 2 4 3
3 5 5 4 4 7 9 6 2 11 2 7 12 18 17 13 11 13 12 13 13 12 7 6 6 6 6 5 4 3 3 3 3 5 3 3 3 3 2 2 2 2 4 2 2 1 1 2 3
2 5 3 3 4 7 11 7 5 2 6 11 17 20 17 14 13 13 12 11 11 13 11 10 8 7 6 4 4 4 3 3 3 4 5 4 3 2 2 2 2 1 1 1 0 1 2 3 3
2 3 1 2 5 6 7 6 6 5 1 11 12 14 15 14 10 8 11 10 10 11 8 12 11 10 6 7 4 4 4 4 4 4 5 4 4 4 3 2 3 3 3 3 3 3 2 3 3
3 5 2 2 4 3 6 4 5 5 4 12 16 14 14 13 10 6 8 11 11 11 10 8 9 11 11 8 7 6 5 5 5 4 4 5 4 4 3 3 3 3 3 3 2 2 2 3 3
3 4 2 2 3 3 7 2 5 5 8 14 11 11 11 13 10 13 12 13 14 12 13 12 9 8 8 7 9 6 4 4 4 5 6 6 5 4 3 3 2 3 2 2 1 1 1 2 3
6 5 4 3 4 0 4 7 4 7 11 11 10 8 9 12 14 11 11 12 12 11 13 12 9 8 7 6 6 4 4 4 3 4 4 5 5 5 3 2 3 2 1 2 2 2 3 4 3
1 5 4 1 5 3 3 5 5 7 8 9 9 9 9 9 8 10 10 11 13 13 14 13 10 10 9 7 5 4 3 3 4 4 3 5 5 5 4 3 3 3 3 4 2 2 3 3 3
7 6 3 5 6 2 4 4 4 7 8 11 9 8 9 9 11 9 9 8 11 12 14 14 11 10 8 5 4 4 3 3 3 3 3 5 4 5 4 3 3 2 2 2 2 2 2 3 4
8 6 7 3 3 5 8 4 9 7 5 7 8 9 8 9 3 3 5 6 7 6 8 13 13 10 8 4 4 4 4 3 2 3 5 5 4 5 5 3 3 3 3 3 3 1 3 3 2
6 9 5 0 1 3 4 9 3 5 6 8 11 9 10 6 5 5 3 3 4 7 7 7 12 13 10 7 4 3 3 2 3 3 4 5 5 5 4 4 4 4 3 4 4 3 1 2 2
4 7 5 5 3 3 4 7 4 5 3 3 4 5 5 10 9 5 5 3 3 3 2 6 8 12 12 9 5 3 4 2 2 2 2 3 4 4 4 4 3 3 3 3 2 3 4 3 2
6 7 7 8 6 5 4 6 6 7 8 6 7 8 9 9 5 3 4 2 3 2 2 3 7 11 9 11 8 10 5 4 3 2 3 6 9 8 7 5 3 2 2 3 2 2 2 2 3
6 8 10 7 5 5 2 1 8 2 6 9 12 9 7 7 8 8 6 4 3 2 3 3 5 9 10 10 11 7 5 4 4 5 7 8 7 8 7 7 6 5 4 4 6 4 5 3 2
8 8 6 5 4 3 7 8 7 7 12 14 4 10 9 8 7 6 5 5 3 3 4 3 5 3 7 7 10 8 10 8 6 5 6 4 4 5 7 7 6 6 5 6 5 5 6 5 4
6 9 2 0 2 7 3 4 9 6 8 9 18 11 10 9 7 7 8 6 4 6 5 4 6 6 6 8 10 10 11 9 9 6 6 5 4 4 6 5 6 5 6 6 5 6 6 5 4
8 12 7 8 6 3 2 8 8 5 4 6 8 11 11 9 7 7 7 6 6 6 6 6 7 8 7 10 12 11 10 7 6 7 6 4 5 4 5 5 6 6 6 6 5 4 4 5 4
7 8 6 9 4 4 5 6 9 0 1 4 9 13 12 10 8 8 7 6 6 6 6 7 8 8 8 11 11 10 9 10 9 8 6 5 5 4 5 6 6 6 6 6 6 4 5 5 4
5 8 4 2 6 4 5 4 6 6 11 8 12 15 11 9 9 7 7 7 4 5 6 6 7 9 8 11 10 10 9 9 8 7 7 6 5 5 6 6 6 6 6 5 5 4 4 5 4
2 3 3 6 5 7 2 8 10 17 16 17 14 13 13 12 12 10 8 7 6 6 6 7 8 10 9 10 10 11 9 8 7 7 6 6 6 6 6 5 5 5 5 6 5 5 5 5 5
2 7 8 6 7 1 3 8 2 6 7 9 10 12 11 13 11 10 9 8 7 7 6 6 6 8 8 8 10 10 9 7 7 7 6 6 6 5 5 5 5 5 4 3 4 5 5 6 6
Wind_Direction
338 317 126 42 53 66 282 216 158 114 64 336 25 92 114 48 84 181 113 133 127 122 117 99 105 112 112 114 103 100 103 94 91 92 100 91 87 87 91 90 87 85 87 87 86 81 79 78 72
336 325 39 81 88 63 273 302 133 171 132 122 94 96 58 73 83 111 87 141 127 122 111 109 106 107 119 112 103 98 98 99 106 105 104 100 91 91 88 91 92 93 86 86 83 74 67 60 55
321 89 82 97 113 190 178 216 168 132 147 142 91 58 116 129 125 134 138 136 120 105 107 112 110 109 121 114 111 110 110 106 97 94 82 104 105 94 92 80 84 82 84 85 79 74 68 64 61
16 3 31 86 231 232 161 194 197 137 89 70 114 70 48 226 127 133 139 130 122 114 109 115 111 114 125 127 121 119 119 115 110 105 89 78 105 99 103 95 91 86 81 80 82 78 74 67 66
38 52 70 90 294 344 113 184 179 114 91 63 123 106 47 15 116 126 128 126 120 114 119 113 110 113 126 134 124 121 118 114 105 99 96 92 85 101 109 95 95 93 89 85 81 76 72 64 66
26 96 72 150 245 24 172 197 152 104 97 160 79 88 355 118 120 125 131 129 124 120 112 106 101 96 122 124 120 121 117 116 114 115 106 102 90 96 113 106 104 98 91 88 85 81 73 63 65
131 93 175 172 181 296 208 157 143 144 146 159 135 94 105 158 141 131 121 125 129 133 128 122 116 109 113 115 118 119 116 116 114 111 108 105 99 86 88 108 107 105 99 92 84 72 63 57 68
117 99 150 182 183 230 224 138 134 134 145 105 139 158 176 175 148 127 127 121 103 112 123 132 123 112 110 120 125 121 111 107 109 114 112 105 89 79 76 74 101 103 98 96 88 76 63 45 48
109 76 176 209 151 225 234 122 105 47 107 84 48 154 160 147 138 132 130 124 112 109 141 127 127 127 116 113 117 99 107 117 122 123 117 95 89 91 80 88 97 99 98 100 96 81 62 38 10
116 141 206 199 185 185 172 136 151 97 97 28 62 79 141 135 150 149 152 156 148 154 181 158 143 141 136 127 123 121 131 142 141 128 123 127 131 119 99 94 99 103 101 110 111 99 43 4 345
218 192 204 221 185 184 150 137 133 125 228 202 153 145 158 151 155 158 164 167 158 160 169 178 157 154 149 138 142 143 149 151 153 155 153 135 125 110 95 93 80 90 97 82 92 92 317 307 307
232 238 202 225 121 144 156 128 108 187 222 160 156 156 161 167 166 170 168 169 163 159 175 174 169 161 163 147 163 159 157 168 170 177 160 142 134 138 148 154 167 136 170 164 253 301 288 282 293
210 290 130 159 126 155 119 136 157 205 306 131 136 155 169 178 176 170 168 174 172 167 169 170 171 168 169 164 168 169 182 179 185 174 165 161 153 171 180 193 195 199 191 197 217 240 255 281 290
224 228 313 263 130 135 127 149 118 246 127 135 155 172 172 180 178 161 163 177 183 175 179 184 170 166 168 176 177 184 181 176 174 177 178 167 164 174 182 193 202 207 206 211 218 237 267 279 294
156 130 33 276 216 137 130 74 195 178 152 154 169 180 179 188 177 191 184 183 185 185 180 184 187 169 165 187 171 183 170 164 167 173 175 172 172 189 189 194 206 225 217 212 219 252 253 277 282
144 86 145 247 194 175 105 223 213 168 146 174 180 186 189 203 195 201 193 186 189 182 180 184 185 185 175 178 176 164 162 154 146 143 164 182 183 169 178 200 235 247 243 224 221 244 283 274 262
146 173 186 225 213 130 147 211 207 167 166 187 199 190 199 212 215 208 200 187 179 182 182 182 179 187 183 180 155 161 171 176 171 157 167 174 196 191 178 185 225 205 207 216 216 239 237 283 286
157 138 152 179 217 179 172 237 180 180 171 195 206 204 204 203 215 209 204 194 182 176 179 181 181 184 176 158 139 141 165 187 171 184 197 202 197 200 194 211 234 216 237 251 255 268 267 259 280
141 137 171 218 203 144 205 218 207 194 186 207 218 214 211 204 189 138 136 141 146 151 165 182 174 179 162 155 157 174 177 176 180 194 214 208 206 206 214 224 245 230 239 250 234 249 276 291 273
141 160 186 68 60 157 163 233 234 202 224 198 194 210 199 168 180 153 118 81 110 142 167 177 183 171 172 171 165 153 144 161 177 189 211 217 214 204 205 220 230 224 238 248 246 217 260 259 211
200 167 174 161 140 60 108 305 212 234 216 180 200 190 170 180 181 171 138 101 81 118 180 186 176 175 173 164 135 87 82 79 144 197 209 230 233 223 223 246 254 262 231 262 256 246 218 258 262
202 194 167 147 129 190 154 257 247 216 199 201 202 182 177 176 160 153 158 130 121 191 241 239 186 168 168 165 160 156 167 159 174 116 61 56 51 49 45 43 21 344 320 326 325 333 288 281 305
196 142 161 159 146 122 207 136 261 134 213 221 211 205 185 186 162 164 165 146 57 43 220 220 199 175 170 172 164 159 140 125 108 99 93 80 60 49 43 39 40 44 38 37 41 18 23 22 330
142 97 50 66 101 248 197 167 256 188 204 207 176 203 179 172 166 159 144 126 99 80 111 119 122 103 145 155 147 143 132 122 115 104 94 72 67 59 43 42 46 38 38 35 29 27 31 16 4
163 144 127 94 187 217 158 156 239 228 234 207 201 187 165 168 169 161 149 139 125 114 115 118 120 94 104 109 108 107 110 103 109 112 100 95 66 37 36 36 40 36 34 37 29 33 35 21 23
192 173 154 175 187 206 122 228 245 223 280 237 187 161 155 157 171 165 156 150 144 126 113 108 104 96 93 104 100 100 98 106 98 98 100 89 90 82 54 52 51 44 38 34 35 34 26 24 25
190 187 153 98 19 73 213 282 301 197 106 148 148 157 172 161 163 163 146 154 146 136 129 122 113 101 102 102 103 99 104 102 108 97 95 99 95 84 72 60 51 37 36 31 26 24 21 17 10
187 156 106 12 136 221 261 263 234 233 224 182 177 179 171 156 156 154 151 159 148 130 113 100 103 113 110 106 106 105 102 100 99 96 94 91 87 80 69 60 57 48 33 26 26 16 12 14 357
146 203 76 119 147 173 178 254 214 205 206 191 187 172 164 164 165 165 157 153 141 120 119 114 109 111 103 104 108 107 102 98 97 96 89 82 79 71 68 58 53 52 32 18 17 8 14 4 341
277 208 173 170 221 289 158 264 177 226 205 167 170 168 166 166 165 162 158 149 147 137 129 122 110 112 111 109 109 109 108 104 99 92 85 82 84 76 73 54 46 36 25 15 14 7 2 359 344